![]() |
EMODnet Physics ERDDAP
Easier access to scientific data |
log in|
Brought to you by EMODnet Physics |
| Dataset Title: | NDBC - Collection of dew point temperature (DEWT) TimeSeries - IN SITU MultiPointTimeSeriesObservation
|
| Institution: | NDBC (Dataset ID: TS_DEWT_NDBC) |
| Information: | Summary
| License
| FGDC
| ISO 19115
| Metadata
| Background
| Subset
| Data Access Form
| Make a graph
|
| Name | Last modified | Size | Description | |
|---|---|---|---|---|
| Parent Directory | - | - | ||
| ANVC1_TS_DEWT_012007.nc | 05-Dec-2024 07:00 | 1470712 | ||
| ANVC1_TS_DEWT_012008.nc | 05-Dec-2024 07:06 | 1474402 | ||
| ANVC1_TS_DEWT_012009.nc | 05-Dec-2024 07:12 | 1470871 | ||
| ANVC1_TS_DEWT_012010.nc | 05-Dec-2024 07:18 | 1470727 | ||
| ANVC1_TS_DEWT_012011.nc | 05-Dec-2024 07:24 | 1470803 | ||
| ANVC1_TS_DEWT_012012.nc | 05-Dec-2024 07:31 | 1473075 | ||
| ANVC1_TS_DEWT_012013.nc | 05-Dec-2024 07:48 | 1469384 | ||
| ANVC1_TS_DEWT_012014.nc | 05-Dec-2024 07:55 | 1470680 | ||
| ANVC1_TS_DEWT_012015.nc | 05-Dec-2024 08:01 | 1470639 | ||
| ANVC1_TS_DEWT_012016.nc | 05-Dec-2024 08:07 | 1473913 | ||
| ANVC1_TS_DEWT_012017.nc | 05-Dec-2024 08:13 | 1470582 | ||
| ANVC1_TS_DEWT_012018.nc | 05-Dec-2024 08:20 | 1470798 | ||
| ANVC1_TS_DEWT_012019.nc | 05-Dec-2024 08:26 | 1470322 | ||
| ANVC1_TS_DEWT_012020.nc | 05-Dec-2024 08:33 | 1163934 | ||
| ANVC1_TS_DEWT_012021.nc | 05-Dec-2024 08:39 | 1477997 | ||
| ANVC1_TS_DEWT_012022.nc | 05-Dec-2024 08:45 | 1627423 | ||
| ANVC1_TS_DEWT_012023.nc | 05-Dec-2024 08:51 | 1474014 | ||
| ANVC1_TS_DEWT_022007.nc | 05-Dec-2024 07:01 | 1625280 | ||
| ANVC1_TS_DEWT_022008.nc | 05-Dec-2024 07:07 | 1476326 | ||
| ANVC1_TS_DEWT_022009.nc | 05-Dec-2024 07:12 | 1626856 | ||
| ANVC1_TS_DEWT_022010.nc | 05-Dec-2024 07:18 | 1627602 | ||
| ANVC1_TS_DEWT_022011.nc | 05-Dec-2024 07:25 | 1626261 | ||
| ANVC1_TS_DEWT_022012.nc | 05-Dec-2024 07:31 | 1626393 | ||
| ANVC1_TS_DEWT_022013.nc | 05-Dec-2024 07:49 | 1626722 | ||
| ANVC1_TS_DEWT_022014.nc | 05-Dec-2024 07:55 | 1627663 | ||
| ANVC1_TS_DEWT_022015.nc | 05-Dec-2024 08:02 | 1627458 | ||
| ANVC1_TS_DEWT_022016.nc | 05-Dec-2024 08:08 | 1627410 | ||
| ANVC1_TS_DEWT_022017.nc | 05-Dec-2024 08:14 | 1160149 | ||
| ANVC1_TS_DEWT_022018.nc | 05-Dec-2024 08:21 | 1627555 | ||
| ANVC1_TS_DEWT_022019.nc | 05-Dec-2024 08:27 | 1627853 | ||
| ANVC1_TS_DEWT_022020.nc | 05-Dec-2024 08:34 | 1158800 | ||
| ANVC1_TS_DEWT_022021.nc | 05-Dec-2024 08:40 | 1477274 | ||
| ANVC1_TS_DEWT_022022.nc | 05-Dec-2024 08:46 | 1474005 | ||
| ANVC1_TS_DEWT_022023.nc | 05-Dec-2024 08:52 | 1475048 | ||
| ANVC1_TS_DEWT_032006.nc | 05-Dec-2024 06:57 | 1477831 | ||
| ANVC1_TS_DEWT_032007.nc | 05-Dec-2024 07:01 | 1477956 | ||
| ANVC1_TS_DEWT_032008.nc | 05-Dec-2024 07:07 | 1477930 | ||
| ANVC1_TS_DEWT_032009.nc | 05-Dec-2024 07:13 | 1477982 | ||
| ANVC1_TS_DEWT_032010.nc | 05-Dec-2024 07:19 | 1477838 | ||
| ANVC1_TS_DEWT_032011.nc | 05-Dec-2024 07:25 | 1477069 | ||
| ANVC1_TS_DEWT_032012.nc | 05-Dec-2024 07:32 | 1476376 | ||
| ANVC1_TS_DEWT_032013.nc | 05-Dec-2024 07:49 | 1477585 | ||
| ANVC1_TS_DEWT_032014.nc | 05-Dec-2024 07:56 | 1477960 | ||
| ANVC1_TS_DEWT_032015.nc | 05-Dec-2024 08:02 | 1477770 | ||
| ANVC1_TS_DEWT_032016.nc | 05-Dec-2024 08:08 | 1477833 | ||
| ANVC1_TS_DEWT_032017.nc | 05-Dec-2024 08:14 | 1477980 | ||
| ANVC1_TS_DEWT_032018.nc | 05-Dec-2024 08:21 | 1477222 | ||
| ANVC1_TS_DEWT_032019.nc | 05-Dec-2024 08:27 | 1165695 | ||
| ANVC1_TS_DEWT_032020.nc | 05-Dec-2024 08:34 | 1477349 | ||
| ANVC1_TS_DEWT_032021.nc | 05-Dec-2024 08:40 | 1627539 | ||
| ANVC1_TS_DEWT_032022.nc | 05-Dec-2024 08:46 | 1627752 | ||
| ANVC1_TS_DEWT_032023.nc | 05-Dec-2024 08:52 | 1627825 | ||
| ANVC1_TS_DEWT_042005.nc | 05-Dec-2024 06:56 | 1627788 | ||
| ANVC1_TS_DEWT_042006.nc | 05-Dec-2024 06:57 | 1627297 | ||
| ANVC1_TS_DEWT_042007.nc | 05-Dec-2024 07:02 | 1627810 | ||
| ANVC1_TS_DEWT_042008.nc | 05-Dec-2024 07:07 | 1626280 | ||
| ANVC1_TS_DEWT_042009.nc | 05-Dec-2024 07:13 | 1627460 | ||
| ANVC1_TS_DEWT_042010.nc | 05-Dec-2024 07:19 | 1626869 | ||
| ANVC1_TS_DEWT_042011.nc | 05-Dec-2024 07:26 | 1627280 | ||
| ANVC1_TS_DEWT_042012.nc | 05-Dec-2024 07:32 | 1627605 | ||
| ANVC1_TS_DEWT_042013.nc | 05-Dec-2024 07:50 | 1627727 | ||
| ANVC1_TS_DEWT_042014.nc | 05-Dec-2024 07:56 | 1625271 | ||
| ANVC1_TS_DEWT_042015.nc | 05-Dec-2024 08:03 | 1627527 | ||
| ANVC1_TS_DEWT_042016.nc | 05-Dec-2024 08:09 | 1627883 | ||
| ANVC1_TS_DEWT_042017.nc | 05-Dec-2024 08:15 | 1460814 | ||
| ANVC1_TS_DEWT_042018.nc | 05-Dec-2024 08:21 | 1474276 | ||
| ANVC1_TS_DEWT_042019.nc | 05-Dec-2024 08:28 | 1477669 | ||
| ANVC1_TS_DEWT_042020.nc | 05-Dec-2024 08:35 | 1477345 | ||
| ANVC1_TS_DEWT_042021.nc | 05-Dec-2024 08:41 | 1476700 | ||
| ANVC1_TS_DEWT_042022.nc | 05-Dec-2024 08:47 | 1477876 | ||
| ANVC1_TS_DEWT_042023.nc | 05-Dec-2024 08:53 | 1477578 | ||
| ANVC1_TS_DEWT_052005.nc | 05-Dec-2024 06:57 | 1477935 | ||
| ANVC1_TS_DEWT_052006.nc | 05-Dec-2024 06:58 | 1477626 | ||
| ANVC1_TS_DEWT_052007.nc | 05-Dec-2024 07:02 | 1476953 | ||
| ANVC1_TS_DEWT_052008.nc | 05-Dec-2024 07:08 | 1477304 | ||
| ANVC1_TS_DEWT_052009.nc | 05-Dec-2024 07:14 | 1477689 | ||
| ANVC1_TS_DEWT_052010.nc | 05-Dec-2024 07:20 | 1477139 | ||
| ANVC1_TS_DEWT_052012.nc | 05-Dec-2024 07:34 | 1477691 | ||
| ANVC1_TS_DEWT_052013.nc | 05-Dec-2024 07:50 | 1477996 | ||
| ANVC1_TS_DEWT_052014.nc | 05-Dec-2024 07:57 | 1477024 | ||
| ANVC1_TS_DEWT_052015.nc | 05-Dec-2024 08:03 | 1468326 | ||
| ANVC1_TS_DEWT_052016.nc | 05-Dec-2024 08:09 | 1627639 | ||
| ANVC1_TS_DEWT_052017.nc | 05-Dec-2024 08:15 | 1627448 | ||
| ANVC1_TS_DEWT_052018.nc | 05-Dec-2024 08:22 | 1626390 | ||
| ANVC1_TS_DEWT_052019.nc | 05-Dec-2024 08:29 | 1627800 | ||
| ANVC1_TS_DEWT_052020.nc | 05-Dec-2024 08:35 | 1627500 | ||
| ANVC1_TS_DEWT_052021.nc | 05-Dec-2024 08:41 | 1627130 | ||
| ANVC1_TS_DEWT_052022.nc | 05-Dec-2024 08:47 | 1626284 | ||
| ANVC1_TS_DEWT_052023.nc | 05-Dec-2024 08:53 | 1478567 | ||
| ANVC1_TS_DEWT_062005.nc | 05-Dec-2024 06:57 | 1627309 | ||
| ANVC1_TS_DEWT_062006.nc | 05-Dec-2024 06:58 | 1626806 | ||
| ANVC1_TS_DEWT_062007.nc | 05-Dec-2024 07:03 | 1626344 | ||
| ANVC1_TS_DEWT_062008.nc | 05-Dec-2024 07:08 | 1626241 | ||
| ANVC1_TS_DEWT_062009.nc | 05-Dec-2024 07:14 | 1625757 | ||
| ANVC1_TS_DEWT_062010.nc | 05-Dec-2024 07:20 | 1626829 | ||
| ANVC1_TS_DEWT_062011.nc | 05-Dec-2024 07:27 | 1627873 | ||
| ANVC1_TS_DEWT_062012.nc | 05-Dec-2024 07:36 | 1627874 | ||
| ANVC1_TS_DEWT_062013.nc | 05-Dec-2024 07:51 | 1472608 | ||
| ANVC1_TS_DEWT_062014.nc | 05-Dec-2024 07:57 | 1627437 | ||
| ANVC1_TS_DEWT_062015.nc | 05-Dec-2024 08:04 | 1627183 | ||
| ANVC1_TS_DEWT_062016.nc | 05-Dec-2024 08:10 | 1627520 | ||
| ANVC1_TS_DEWT_062017.nc | 05-Dec-2024 08:16 | 1627815 | ||
| ANVC1_TS_DEWT_062018.nc | 05-Dec-2024 08:22 | 1472827 | ||
| ANVC1_TS_DEWT_062019.nc | 05-Dec-2024 08:29 | 1626586 | ||
| ANVC1_TS_DEWT_062020.nc | 05-Dec-2024 08:36 | 1627788 | ||
| ANVC1_TS_DEWT_062021.nc | 05-Dec-2024 08:42 | 1626909 | ||
| ANVC1_TS_DEWT_062022.nc | 05-Dec-2024 08:48 | 1625712 | ||
| ANVC1_TS_DEWT_062023.nc | 05-Dec-2024 08:54 | 1477306 | ||
| ANVC1_TS_DEWT_072006.nc | 05-Dec-2024 06:58 | 1476868 | ||
| ANVC1_TS_DEWT_072007.nc | 05-Dec-2024 07:03 | 1627067 | ||
| ANVC1_TS_DEWT_072008.nc | 05-Dec-2024 07:09 | 1626163 | ||
| ANVC1_TS_DEWT_072009.nc | 05-Dec-2024 07:15 | 1627687 | ||
| ANVC1_TS_DEWT_072010.nc | 05-Dec-2024 07:21 | 1477919 | ||
| ANVC1_TS_DEWT_072011.nc | 05-Dec-2024 07:27 | 1627273 | ||
| ANVC1_TS_DEWT_072012.nc | 05-Dec-2024 07:38 | 1474188 | ||
| ANVC1_TS_DEWT_072013.nc | 05-Dec-2024 07:51 | 1475154 | ||
| ANVC1_TS_DEWT_072014.nc | 05-Dec-2024 07:58 | 1475932 | ||
| ANVC1_TS_DEWT_072015.nc | 05-Dec-2024 08:04 | 1465172 | ||
| ANVC1_TS_DEWT_072016.nc | 05-Dec-2024 08:10 | 1477936 | ||
| ANVC1_TS_DEWT_072017.nc | 05-Dec-2024 08:17 | 1477841 | ||
| ANVC1_TS_DEWT_072018.nc | 05-Dec-2024 08:23 | 1478001 | ||
| ANVC1_TS_DEWT_072019.nc | 05-Dec-2024 08:30 | 1477033 | ||
| ANVC1_TS_DEWT_072020.nc | 05-Dec-2024 08:36 | 1473283 | ||
| ANVC1_TS_DEWT_072021.nc | 05-Dec-2024 08:42 | 1476221 | ||
| ANVC1_TS_DEWT_072022.nc | 05-Dec-2024 08:48 | 1477617 | ||
| ANVC1_TS_DEWT_072023.nc | 05-Dec-2024 08:54 | 1477205 | ||
| ANVC1_TS_DEWT_082006.nc | 05-Dec-2024 06:58 | 1477049 | ||
| ANVC1_TS_DEWT_082007.nc | 05-Dec-2024 07:04 | 1477370 | ||
| ANVC1_TS_DEWT_082008.nc | 05-Dec-2024 07:09 | 1477991 | ||
| ANVC1_TS_DEWT_082009.nc | 05-Dec-2024 07:15 | 1478005 | ||
| ANVC1_TS_DEWT_082010.nc | 05-Dec-2024 07:21 | 1477829 | ||
| ANVC1_TS_DEWT_082011.nc | 05-Dec-2024 07:28 | 1627537 | ||
| ANVC1_TS_DEWT_082012.nc | 05-Dec-2024 07:40 | 1477120 | ||
| ANVC1_TS_DEWT_082013.nc | 05-Dec-2024 07:52 | 1477508 | ||
| ANVC1_TS_DEWT_082014.nc | 05-Dec-2024 07:58 | 1627786 | ||
| ANVC1_TS_DEWT_082015.nc | 05-Dec-2024 08:05 | 1478623 | ||
| ANVC1_TS_DEWT_082016.nc | 05-Dec-2024 08:11 | 1627761 | ||
| ANVC1_TS_DEWT_082017.nc | 05-Dec-2024 08:17 | 1627847 | ||
| ANVC1_TS_DEWT_082018.nc | 05-Dec-2024 08:23 | 1460902 | ||
| ANVC1_TS_DEWT_082019.nc | 05-Dec-2024 08:30 | 910961 | ||
| ANVC1_TS_DEWT_082020.nc | 05-Dec-2024 08:37 | 1627235 | ||
| ANVC1_TS_DEWT_082021.nc | 05-Dec-2024 08:43 | 1627710 | ||
| ANVC1_TS_DEWT_082022.nc | 05-Dec-2024 08:49 | 1627521 | ||
| ANVC1_TS_DEWT_082023.nc | 05-Dec-2024 08:55 | 1627313 | ||
| ANVC1_TS_DEWT_092006.nc | 05-Dec-2024 06:58 | 1626263 | ||
| ANVC1_TS_DEWT_092007.nc | 05-Dec-2024 07:04 | 1627575 | ||
| ANVC1_TS_DEWT_092008.nc | 05-Dec-2024 07:10 | 1627489 | ||
| ANVC1_TS_DEWT_092009.nc | 05-Dec-2024 07:16 | 1627865 | ||
| ANVC1_TS_DEWT_092010.nc | 05-Dec-2024 07:22 | 1477208 | ||
| ANVC1_TS_DEWT_092011.nc | 05-Dec-2024 07:28 | 1477207 | ||
| ANVC1_TS_DEWT_092012.nc | 05-Dec-2024 07:42 | 1466808 | ||
| ANVC1_TS_DEWT_092013.nc | 05-Dec-2024 07:53 | 1477282 | ||
| ANVC1_TS_DEWT_092014.nc | 05-Dec-2024 07:59 | 1478005 | ||
| ANVC1_TS_DEWT_092015.nc | 05-Dec-2024 08:05 | 1477728 | ||
| ANVC1_TS_DEWT_092016.nc | 05-Dec-2024 08:11 | 1477312 | ||
| ANVC1_TS_DEWT_092017.nc | 05-Dec-2024 08:18 | 1477836 | ||
| ANVC1_TS_DEWT_092018.nc | 05-Dec-2024 08:24 | 1150468 | ||
| ANVC1_TS_DEWT_092019.nc | 05-Dec-2024 08:31 | 1476630 | ||
| ANVC1_TS_DEWT_092020.nc | 05-Dec-2024 08:37 | 1477699 | ||
| ANVC1_TS_DEWT_092021.nc | 05-Dec-2024 08:43 | 1477360 | ||
| ANVC1_TS_DEWT_092022.nc | 05-Dec-2024 08:49 | 1476727 | ||
| ANVC1_TS_DEWT_092023.nc | 05-Dec-2024 08:55 | 1472777 | ||
| ANVC1_TS_DEWT_102006.nc | 05-Dec-2024 06:59 | 1478003 | ||
| ANVC1_TS_DEWT_102007.nc | 05-Dec-2024 07:05 | 1477895 | ||
| ANVC1_TS_DEWT_102008.nc | 05-Dec-2024 07:10 | 1477857 | ||
| ANVC1_TS_DEWT_102009.nc | 05-Dec-2024 07:16 | 1627460 | ||
| ANVC1_TS_DEWT_102010.nc | 05-Dec-2024 07:22 | 1627217 | ||
| ANVC1_TS_DEWT_102011.nc | 05-Dec-2024 07:29 | 1474192 | ||
| ANVC1_TS_DEWT_102012.nc | 05-Dec-2024 07:44 | 1627756 | ||
| ANVC1_TS_DEWT_102013.nc | 05-Dec-2024 07:53 | 1627834 | ||
| ANVC1_TS_DEWT_102014.nc | 05-Dec-2024 08:00 | 1627158 | ||
| ANVC1_TS_DEWT_102015.nc | 05-Dec-2024 08:06 | 1627697 | ||
| ANVC1_TS_DEWT_102016.nc | 05-Dec-2024 08:12 | 1627720 | ||
| ANVC1_TS_DEWT_102017.nc | 05-Dec-2024 08:18 | 1626513 | ||
| ANVC1_TS_DEWT_102018.nc | 05-Dec-2024 08:25 | 1627047 | ||
| ANVC1_TS_DEWT_102019.nc | 05-Dec-2024 08:31 | 1627528 | ||
| ANVC1_TS_DEWT_102020.nc | 05-Dec-2024 08:38 | 1477974 | ||
| ANVC1_TS_DEWT_102021.nc | 05-Dec-2024 08:44 | 1626593 | ||
| ANVC1_TS_DEWT_102022.nc | 05-Dec-2024 08:50 | 1627723 | ||
| ANVC1_TS_DEWT_102023.nc | 05-Dec-2024 08:56 | 1627090 | ||
| ANVC1_TS_DEWT_112006.nc | 05-Dec-2024 06:59 | 1475781 | ||
| ANVC1_TS_DEWT_112007.nc | 05-Dec-2024 07:05 | 591297 | ||
| ANVC1_TS_DEWT_112008.nc | 05-Dec-2024 07:11 | 1831522 | ||
| ANVC1_TS_DEWT_112009.nc | 05-Dec-2024 07:17 | 1833014 | ||
| ANVC1_TS_DEWT_112010.nc | 05-Dec-2024 07:23 | 1829317 | ||
| ANVC1_TS_DEWT_112011.nc | 05-Dec-2024 07:29 | 1827976 | ||
| ANVC1_TS_DEWT_112012.nc | 05-Dec-2024 07:46 | 1831071 | ||
| ANVC1_TS_DEWT_112013.nc | 05-Dec-2024 07:54 | 1826620 | ||
| ANVC1_TS_DEWT_112014.nc | 05-Dec-2024 08:00 | 1831874 | ||
| ANVC1_TS_DEWT_112015.nc | 05-Dec-2024 08:06 | 1831208 | ||
| ANVC1_TS_DEWT_112016.nc | 05-Dec-2024 08:12 | 1831345 | ||
| ANVC1_TS_DEWT_112017.nc | 05-Dec-2024 08:19 | 4752621 | ||
| ANVC1_TS_DEWT_112018.nc | 05-Dec-2024 08:25 | 3732399 | ||
| ANVC1_TS_DEWT_112019.nc | 05-Dec-2024 08:32 | 1648862 | ||
| ANVC1_TS_DEWT_112020.nc | 05-Dec-2024 08:38 | 1620937 | ||
| ANVC1_TS_DEWT_112021.nc | 05-Dec-2024 08:44 | 1652109 | ||
| ANVC1_TS_DEWT_112022.nc | 05-Dec-2024 08:50 | 1655275 | ||
| ANVC1_TS_DEWT_112023.nc | 05-Dec-2024 08:56 | 1654875 | ||
| ANVC1_TS_DEWT_122006.nc | 05-Dec-2024 07:00 | 1662003 | ||
| ANVC1_TS_DEWT_122007.nc | 05-Dec-2024 07:06 | 1652971 | ||
| ANVC1_TS_DEWT_122008.nc | 05-Dec-2024 07:11 | 1654240 | ||
| ANVC1_TS_DEWT_122009.nc | 05-Dec-2024 07:17 | 1658328 | ||
| ANVC1_TS_DEWT_122010.nc | 05-Dec-2024 07:24 | 3445831 | ||
| ANVC1_TS_DEWT_122011.nc | 05-Dec-2024 07:30 | 4868471 | ||
| ANVC1_TS_DEWT_122012.nc | 05-Dec-2024 07:48 | 1709844 | ||
| ANVC1_TS_DEWT_122013.nc | 05-Dec-2024 07:54 | 1669740 | ||
| ANVC1_TS_DEWT_122014.nc | 05-Dec-2024 08:01 | 1819151 | ||
| ANVC1_TS_DEWT_122015.nc | 05-Dec-2024 08:07 | 1824227 | ||
| ANVC1_TS_DEWT_122016.nc | 05-Dec-2024 08:13 | 1830291 | ||
| ANVC1_TS_DEWT_122017.nc | 05-Dec-2024 08:19 | 1835130 | ||
| ANVC1_TS_DEWT_122018.nc | 05-Dec-2024 08:26 | 1680421 | ||
| ANVC1_TS_DEWT_122019.nc | 05-Dec-2024 08:32 | 1280754 | ||
| ANVC1_TS_DEWT_122020.nc | 05-Dec-2024 08:39 | 1834425 | ||
| ANVC1_TS_DEWT_122021.nc | 05-Dec-2024 08:45 | 1835322 | ||
| ANVC1_TS_DEWT_122022.nc | 05-Dec-2024 08:51 | 4145259 | ||
| ANVC1_TS_DEWT_122023.nc | 05-Dec-2024 08:57 | 3938940 | ||